Location: *
(32.8140°S, 174.6161°E)
Time: 14:27:50
(UTC+00:00)

USA 234 - Pass Details

Date: 10 December 2019
Orbit: 1099 x 1108 km, 123.0° (Epoch: 16 January)

Event Time Altitude Azimuth Distance (km) Brightness Sun altitude
Exits shadow 12:34:17 70° 208° (SSW) 1,180 3.4 -34.1°
Drops below altitude 10° 12:40:04 10° 221° (SW) 2,992 6.0 -33.9°
Sets 12:42:34 0° 221° (SW) 3,954 6.7 -33.9°
